Flag for U.S.A. Weather past 2 weeks in Flagstaff, Arizona, U.S.A.

Now
64 °F

Sunny.


Feels Like: 64 °F
Forecast: 32 / 67 °F
Wind: 12 mph from West

Location: Flagstaff Pulliam Airport


UV Index: 5 (Moderate)

Visibility: 10 mi


Pressure: 29.80 "Hg

Humidity: 11%

Dew point: 9 °F

Location of FlagstaffLocation

Historic Weather in Flagstaff

°F

Flagstaff temperature yesterday

Maximum temperature yesterday: 63 °F (at 2:57 PM)
Minimum temperature yesterday: 17 °F (at 4:57 AM)
Average temperature yesterday: 42 °F

Past Weeks' High & Low Weather Summary

 TemperatureHumidityPressure
High70 °F (Apr 9, 2:57 PM)96% (Apr 5, 7:57 PM)30.26 "Hg (Apr 5, 7:57 PM)
Low17 °F (Apr 15, 4:57 AM)4% (Apr 10, 3:57 PM)29.64 "Hg (Apr 2, 3:57 AM)
Average43 °F38%29.95 "Hg
* Reported Apr 1 10:57 AM — Apr 16 10:57 AM, Flagstaff, Weather by CustomWeather, © 2014

Note: Actual official high and low records may vary slightly from our data, if they occured in-between our weather recording intervals... More about our weather records

Advertising

Historic Weather Conditions — Data for Previous 24 hours

 ConditionsComfort  
Time TempWeatherWind HumidityBarometerVisibility
10:57 AM
Apr 16
62 °FSunny.9 mph12%29.80 "Hg10 mi
9:57 AM61 °FSunny.12 mph14%29.79 "Hg10 mi
8:57 AM57 °FSunny.7 mph17%29.79 "Hg10 mi
7:57 AM53 °FSunny.5 mph18%29.78 "Hg10 mi
6:57 AM42 °FSunny.6 mph27%29.80 "Hg10 mi
5:57 AM31 °FSunny.No wind31%29.82 "Hg10 mi
4:57 AM28 °FClear.No wind35%29.83 "Hg10 mi
3:57 AM26 °FClear.No wind42%29.83 "Hg10 mi
2:57 AM29 °FClear.No wind36%29.83 "Hg10 mi
1:57 AM31 °FClear.5 mph30%29.82 "Hg10 mi
12:57 AM30 °FClear.3 mph36%29.84 "Hg10 mi
11:57 PM
Apr 15
30 °FClear.No wind38%29.86 "Hg10 mi
10:57 PM36 °FClear.5 mph31%29.85 "Hg10 mi
9:57 PM41 °FClear.7 mph26%29.85 "Hg10 mi
8:57 PM42 °FClear.No wind24%29.89 "Hg10 mi
7:57 PM48 °FClear.3 mph20%29.87 "Hg10 mi
6:57 PM54 °FSunny.8 mph16%29.90 "Hg10 mi
5:57 PM58 °FSunny.13 mph12%29.92 "Hg10 mi
3:57 PM61 °FSunny.12 mph7%29.93 "Hg10 mi
2:57 PM63 °FSunny.13 mph5%29.93 "Hg10 mi
1:57 PM62 °FSunny.17 mph8%29.97 "Hg10 mi
12:57 PM61 °FSunny.16 mph9%29.97 "Hg10 mi
Weather by CustomWeather, © 2014

See weather overview